Regional Weather Roundup
Issued by NWS

Home | Current Version | Previous Version | Text Only | Print | Product List | Glossary On
Versions: 1 2 3 4 5 6 7 8 9 10 11 12 13 14 15 16 17 18 19 20 21 22 23 24 25 26 27 28 29 30 31 32 33 34 35 36 37 38 39 40 41 42 43 44 45 46 47 48 49 50
000
ASUS42 KKEY 220110
RWRKEY

FLORIDA REGIONAL WEATHER ROUNDUP FOR THE FLORIDA KEYS
NATIONAL WEATHER SERVICE KEY WEST FLORIDA
900 PM EDT TUE OCT 21 2014

...SOUTH FLORIDA AND THE KEYS...

CITY           SKY/WX    TMP DP  RH WIND       PRES   REMARKS
FORT MYERS     CLOUDY    76  72  87 SE3       29.93R
SW REGIONAL AP CLOUDY    75  70  84 SE6       29.95R
NAPLES         CLOUDY    75  71  87 SE5       29.94S
MIAMI          CLOUDY    76  69  79 CALM      29.97R
WEST KENDALL   CLOUDY    75  71  87 CALM      29.97R
HOMESTEAD      CLOUDY    74  71  90 N6        29.97R
MARATHON       CLOUDY    75  74  96 N5        29.96R
BOCA CHICA NAS CLOUDY    76  72  87 CALM      29.95R
KEY WEST INTL  CLOUDY    76  75  97 N3        29.96R

...INTERNATIONAL WEATHER...

CITY           SKY/WX    TMP DP  RH WIND       PRES   REMARKS
NASSAU BAHAMAS NOT AVBL
CANCUN MEXICO  LGT RAIN  77  75  94 E7        29.82R
COZUMEL MEXICO CLOUDY    73  73 100 E12       29.78R

ADJACENT COASTAL WATERS...

STATION/POSITION TIME  SKY/WX   TEMP    WIND        PRES    WAVE
                                AIR SEA DIR/SP/G            HT/PER
                 (UTC)          (F)     (DEG/KT/KT) (MB)    (FT/S)
PULASKI SHOAL LI 0000            80      CALM  /  2 1013.3R
SAND KEY         0036            79     140/  5/  6 1014.5R
SOMBRERO KEY     0100            79      90/  4/  5 1015.1R
LONG KEY         0000            78 80   50/  4/  5 1014.8R
MOLASSES REEF    0100            78 83   30/  8/ 10 1014.4R
FOWEY ROCKS      0100            78 82  360/  7/  8 1014.9R
Buoy 42080       NOT AVBL

$$



USA.gov is the U.S. government's official web portal to all federal, state and local government web resources and services.